This demonstration page uses our WeatherBlox Daily Observations layout. Learn more.

Left ArrowRight Arrow

Hourly Observations for May 11, 2022

Temp ( °F °C ) Dew Point ( °F °C ) Humidity (%) Winds ( mph kmh ) Pressure ( in mb ) Visibility ( mi km ) Precip ( " mm )
12:52 am 00:52 Clear 73 22.8 69 20.6 87 87 S 9 15 30.04 1017 10 16 0.00 0.00
1:52 am 01:52 Clear 73 22.8 69 20.6 87 87 S 10 17 30.03 1017 10 16 0.00 0.00
2:52 am 02:52 Clear 72 22.2 69 20.6 91 91 S 7 11 30.03 1017 10 16 0.00 0.00
3:52 am 03:52 Clear 70 21.1 68 20 93 93 SSW 6 9 30.06 1018 10 16 0.00 0.00
4:52 am 04:52 Clear 69 20.6 67 19.4 93 93 S 5 7 30.08 1019 8 13 0.00 0.00
5:52 am 05:52 Clear 69 20.6 68 20 96 96 SSE 7 11 30.07 1018 9 14 0.00 0.00
6:52 am 06:52 Sunny 70 21.1 68 20 93 93 SSE 7 11 30.09 1019 8 13 0.00 0.00
7:52 am 07:52 Sunny 73 22.8 69 20.6 87 87 S 8 13 30.10 1019 10 16 0.00 0.00
8:52 am 08:52 Sunny 75 23.9 69 20.6 82 82 S 12 19 30.11 1020 10 16 0.00 0.00
9:52 am 09:52 Sunny 77 25 70 21.1 79 79 S 9 15 30.10 1019 10 16 0.00 0.00
10:52 am 10:52 Sunny 80 26.7 71 21.7 74 74 S 10 17 30.09 1019 10 16 0.00 0.00
11:52 am 11:52 Sunny 81 27.2 71 21.7 72 72 SSE 12 19 30.08 1019 10 16 0.00 0.00
12:52 pm 12:52 Sunny 83 28.3 72 22.2 70 70 SSE 15 24 30.04 1017 10 16 0.00 0.00
1:52 pm 13:52 Sunny 86 30 72 22.2 63 63 S 13 20 30.04 1017 10 16 0.00 0.00
2:52 pm 14:52 Sunny 87 30.6 74 23.3 65 65 S 13 20 30.03 1017 10 16 0.00 0.00
3:52 pm 15:52 Sunny 88 31.1 72 22.2 59 59 S 14 22 30.02 1017 10 16 0.00 0.00
4:52 pm 16:52 Sunny 88 31.1 72 22.2 59 59 S 13 20 30.01 1016 10 16 0.00 0.00
5:52 pm 17:52 Sunny 88 31.1 70 21.1 55 55 S 10 17 30.00 1016 10 16 0.00 0.00
6:52 pm 18:52 Sunny 87 30.6 70 21.1 57 57 S 10 17 29.99 1016 10 16 0.00 0.00
7:52 pm 19:52 Sunny 83 28.3 69 20.6 63 63 S 6 9 30.00 1016 10 16 0.00 0.00
8:52 pm 20:52 Clear 80 26.7 68 20 67 67 SSE 8 13 30.01 1016 10 16 0.00 0.00
9:52 pm 21:52 Clear 79 26.1 67 19.4 67 67 SSE 9 15 30.01 1016 10 16 0.00 0.00
10:52 pm 22:52 Clear 74 23.3 66 18.9 76 76 S 8 13 30.02 1017 10 16 0.00 0.00
11:52 pm 23:52 Clear 72 22.2 65 18.3 79 79 SSE 6 9 30.01 1016 10 16 0.00 0.00

Powered by AerisWeather